Location: Artiguemy
(43.1285°N, 0.2471°E)
Time: 10:55:38
(UTC+00:00)

Daily predictions for brighter satellites

Satellite Brightness Start Highest point End
(mag) Time Altitude Azimuth Time Altitude Azimuth Time Altitude Azimuth
Cosmos 44 3.3 19:54:22 10° NW 19:59:09 75° WSW 20:03:37 10° SSE
Cosmos 2034 Rocket 4.0 19:58:52 10° N 20:05:09 81° E 20:11:27 10° S
Cosmos 2084 3.3 20:02:18 10° NW 20:06:03 72° SW 20:09:50 10° SSE
USA 229 DEB 4.2 20:00:42 10° NNW 20:08:09 66° NE 20:16:10 10° SE
USA 229 4.2 20:00:48 10° NNW 20:08:15 66° NE 20:16:17 10° SE
Cosmos 1371 Rocket 4.1 20:03:14 10° NNW 20:08:38 88° WSW 20:13:59 10° SSE
Cosmos 1420 Rocket 4.4 20:08:21 10° NNW 20:13:38 67° WSW 20:18:52 10° S
Cosmos 1378 3.9 20:11:43 10° SSW 20:14:52 46° W 20:18:04 10° N
SeaSat 1 3.4 20:11:25 10° S 20:16:06 44° WSW 20:20:48 10° NW
PSLV R/B 4.2 20:15:01 10° S 20:18:41 58° W 20:22:20 10° NNW
Cosmos 1726 3.4 20:17:21 10° NNE 20:19:40 19° ENE 20:21:30 12° ESE
USA 306 4.0 20:17:17 10° NW 20:20:42 31° NNE 20:24:12 10° E
USA 59 Rocket 2.4 20:20:08 10° NNE 20:21:43 12° NE 20:23:29 10° ENE
Tsikada Rocket 4.0 20:16:05 10° S 20:22:16 79° E 20:28:33 10° N
Cosmos 1943 Rocket 4.5 20:18:18 10° NW 20:22:23 21° W 20:26:27 10° SSW
Cosmos 1943 3.3 20:19:19 10° S 20:24:50 57° ESE 20:30:23 10° NNE
IRS-1C Rocket 4.4 20:21:18 10° SE 20:26:19 51° ENE 20:31:24 10° N
Cosmos 1842 Rocket 4.0 20:22:33 10° SSE 20:26:44 42° E 20:30:54 10° NNE
USA 276 1.9 20:26:03 10° WNW 20:28:07 40° SSW 20:29:24 19° SSE
Resurs 01 Rocket 2.9 20:25:11 10° SSW 20:29:20 40° W 20:33:31 10° NNW
Okean 3 Rocket 4.0 20:25:29 10° N 20:29:40 43° ENE 20:33:10 14° SSE
ISS -3.3 20:27:53 10° NW 20:31:13 56° NNE 20:33:56 14° ESE
Okean O Rocket 3.0 20:35:28 10° SSW 20:39:34 37° W 20:43:42 10° NNW
CZ-4 R/B 4.2 20:38:43 10° WSW 20:40:17 12° W 20:41:52 10° WNW
Cosmos 2221 3.4 20:39:02 10° SSW 20:43:13 50° WNW 20:47:26 10° N
USA 281 4.3 20:43:30 12° ESE 20:48:42 33° NE 20:54:27 10° N
ATLAS 3B R/B 4.1 20:42:48 10° NW 20:49:49 37° WSW 20:56:41 10° S
Ariane Rocket 3.5 20:48:21 18° SE 20:51:49 45° ENE 20:56:39 10° N
MetOp-B 4.2 20:46:52 12° SSE 20:51:51 86° WSW 20:57:14 10° NNW
Cosmos 1766 Rocket 4.2 20:48:23 10° NNW 20:52:45 57° W 20:57:07 10° S
GEOS 3 Rocket 4.3 20:55:43 10° NE 21:00:16 31° ESE 21:03:30 16° S
Terra 1.9 20:59:36 21° SSE 21:02:42 65° ENE 21:07:23 10° N
Cosmos 1340 Rocket 3.7 21:03:13 25° SE 21:04:32 32° E 21:08:06 10° NNE
MOS 1 Rocket 3.9 21:02:03 22° SE 21:05:11 50° ENE 21:10:20 10° N
Cosmos 1452 Rocket 3.5 21:02:46 10° NNW 21:08:02 89° ENE 21:11:27 22° SSE
Cosmos 1743 Rocket 4.3 21:05:00 10° N 21:09:06 37° ENE 21:10:55 25° ESE
Lacrosse 5 4.4 21:08:27 10° W 21:09:54 11° WSW 21:11:20 10° SW
Lacrosse 5 rocket 4.4 21:09:42 10° NW 21:11:46 13° N 21:13:48 10° NNE
Helios 1B 4.5 21:10:34 10° NNE 21:14:52 69° ESE 21:17:40 21° S
ERS-1 Rocket 3.0 21:12:27 20° S 21:15:57 80° WSW 21:21:00 10° NNW
Cosmos 1408 Rocket 3.5 21:14:27 10° N 21:18:56 85° E 21:21:17 27° S
Meteor 2-10 4.2 21:15:58 10° N 21:21:27 64° ENE 21:24:13 28° SSE
USA 245 2.6 21:22:29 44° WSW 21:22:37 45° W 21:24:51 10° NNW
Cosmos 1626 4.3 21:24:36 11° ENE 21:24:36 11° ENE 21:24:53 10° ENE
Nadezhda 4 Rocket 4.1 21:21:16 22° SSE 21:25:13 60° E 21:31:22 10° NNE
Cosmos 2279 Rocket 4.2 21:20:01 10° NNW 21:26:11 71° W 21:30:55 18° S
Spot 1 4.1 21:22:29 10° NNE 21:26:32 54° ESE 21:28:04 34° SSE
Cosmos 614 Rocket 4.4 21:25:40 29° SSE 21:27:42 43° ESE 21:32:36 10° NNE
SPOT 5 4.1 21:26:54 12° SSW 21:30:34 33° W 21:34:35 10° NNW
Meteor 1-19 Rocket 4.2 21:28:38 19° S 21:32:57 81° E 21:38:43 10° NNE
Cosmos 1603 4.1 21:29:11 10° SW 21:34:47 64° WNW 21:40:29 10° NNE
Cosmos 1833 Rocket 4.3 21:35:26 16° E 21:35:26 16° E 21:38:36 10° ENE
Okean 1 3.6 21:33:59 23° SSW 21:36:12 63° W 21:40:03 10° N
Cosmos 1151 Rocket 3.1 21:37:10 40° SSE 21:38:31 60° E 21:42:47 10° NNE
Cosmos 2369 Rocket 3.9 21:35:48 10° NW 21:40:12 24° WSW 21:44:28 10° SSW
Cosmos 1975 3.7 21:39:06 10° N 21:42:41 32° ENE 21:43:09 31° E
Meteor 1-11 Rocket 4.1 21:38:26 10° NNW 21:44:03 63° W 21:47:34 24° S
Meteor 2-17 Rocket 4.3 21:41:44 24° S 21:45:35 85° E 21:51:40 10° N
FALCON 9 R/B 4.0 21:40:47 10° WSW 21:46:45 43° S 21:58:41 19° SE
Cosmos 1302 Rocket 3.9 21:45:32 10° NNW 21:50:46 87° ENE 21:52:42 40° SSE
Cosmos 1536 4.0 21:47:50 10° NNW 21:51:25 35° W 21:53:08 24° SW
Cosmos 1726 4.0 21:50:31 10° NW 21:52:43 18° W 21:53:59 14° WSW
Cosmos 1500 Rocket 4.0 21:49:32 10° NNW 21:53:45 53° W 21:55:23 33° SSW
USA 306 2.8 21:50:46 10° WNW 21:54:33 52° SW 21:54:47 51° SSW
Cosmos 1656 4.3 21:50:46 10° NNW 21:55:58 43° ENE 21:58:06 30° ESE
Cosmos 1805 2.9 21:57:38 10° N 22:01:21 74° E 22:01:33 71° ESE
Lacrosse 4 Rocket 2.3 21:57:46 10° NNW 22:01:35 37° NE 22:02:26 33° E
Cosmos 1733 3.6 21:59:20 10° NNW 22:02:43 47° W 22:03:12 43° WSW
H-2A R/B 4.1 22:02:15 20° E 22:02:59 21° ENE 22:06:12 10° NNE
Cosmos 1805 Rocket 4.2 22:00:03 10° NNW 22:04:18 50° W 22:05:48 34° SSW
Cosmos 2026 Rocket 4.0 22:02:10 37° SSE 22:04:42 65° E 22:10:52 10° NNE
ISS -1.6 22:05:08 10° W 22:06:48 18° WSW 22:06:48 18° WSW
IRIDIUM 104 4.3 22:02:44 10° N 22:07:57 69° E 22:09:23 47° SSE
NOSS 3-3 (A) 3.6 22:08:04 39° S 22:10:02 64° ESE 22:16:04 10° NE
Cosmos 1627 Rocket 4.5 22:07:49 38° SSE 22:10:22 70° E 22:16:38 10° NNE
Cosmos 1633 Rocket 3.4 22:06:40 10° N 22:10:59 50° ENE 22:11:28 48° ESE
USA 59 Rocket 0.2 22:07:37 10° NW 22:11:44 80° NE 22:13:06 49° SE
Landsat 5 4.2 22:09:28 10° N 22:13:04 45° WNW 22:14:26 31° WSW
Cosmos 1666 Rocket 3.5 22:08:48 10° N 22:13:05 65° E 22:13:32 60° ESE
NOSS 2-1 (E) 3.7 22:09:41 10° NW 22:13:50 83° NE 22:15:08 51° SE
Cosmos 1340 3.4 22:12:08 10° NNW 22:15:17 37° W 22:15:25 36° W
Chandra Rocket (1) 4.4 21:59:02 10° WSW 22:16:47 34° SSW 22:18:40 31° S
IRIDIUM 114 4.2 22:11:51 10° N 22:17:07 84° E 22:18:30 50° S
Cosmos 220 Rocket 4.2 22:18:08 43° SW 22:19:25 68° WNW 22:23:44 10° NNE
Sich 1 4.3 22:16:16 10° NNW 22:20:12 33° W 22:21:38 26° SW
CZ-2C R/B 3.5 22:18:54 10° NNE 22:23:21 65° E 22:23:38 64° SE
Cosmos 1818 3.5 22:21:17 34° SSW 22:23:47 87° ESE 22:29:17 10° NE
IRIDIUM 103 4.3 22:21:01 10° N 22:26:15 81° W 22:27:37 50° S
NOSS 2-1 (D) 3.7 22:22:20 10° NW 22:26:27 74° SW 22:27:17 59° S
ALOS 2 4.3 22:26:21 20° E 22:27:02 21° ENE 22:30:21 10° NNE
USA 281 3.6 22:30:22 35° SSW 22:32:54 54° WSW 22:39:22 10° NNW
Cosmos 1697 Rocket 3.7 22:28:17 10° N 22:33:28 36° ENE 22:35:28 28° E
Meteor 2-4 Rocket 4.0 22:33:18 35° SSW 22:35:52 68° WNW 22:41:49 10° N
Cosmos 1674 4.1 22:37:26 27° NE 22:37:26 27° NE 22:39:28 10° NNE
Cosmos 1607 4.2 22:37:14 45° SE 22:38:02 48° ESE 22:44:14 10° NE
Cosmos 1553 Rocket 4.1 22:32:23 10° N 22:38:23 59° E 22:39:56 46° SE
GEOS 3 Rocket 4.5 22:33:26 10° NNE 22:38:24 48° NW 22:43:17 10° WSW
NOSS 3-3 (C) 3.7 22:38:08 33° SW 22:40:42 84° NW 22:47:00 10° NE
Terra 4.2 22:38:23 10° WSW 22:40:43 14° W 22:43:05 10° WNW
Cosmos 1980 Rocket 4.0 22:37:06 10° N 22:41:33 23° NE 22:44:38 15° E
Cosmos 1066 Rocket 4.2 22:41:55 53° S 22:43:21 81° E 22:49:14 10° NNE
Cosmos 2285 Rocket 4.5 22:44:29 39° ESE 22:45:13 41° E 22:51:04 10° NNE
Cosmos 407 Rocket 4.5 22:49:43 33° E 22:49:43 33° E 22:54:04 10° NE
ARIANE 5 R/B 2.5 22:50:12 75° WSW 22:50:16 75° WSW 22:54:35 10° NNW
Lacrosse 5 rocket 4.2 22:49:15 10° NNW 22:51:39 15° NNE 22:53:59 10° NE
Cosmos 1269 Rocket 4.3 22:54:33 40° SW 22:56:15 61° WNW 23:01:29 10° NNE
Cosmos 1626 3.5 22:57:25 29° NW 22:57:25 29° NW 22:59:47 10° NNW
Cosmos 2251 Rocket 4.2 23:01:47 38° E 23:01:47 38° E 23:06:21 10° NE
CZ-3 Stage 3 4.0 22:38:32 10° WSW 23:01:59 39° S 23:03:03 38° S
PSLV R/B 4.4 23:03:34 10° N 23:07:31 51° WNW 23:07:35 50° WNW
Cosmos 1707 3.7 23:09:21 40° NNE 23:09:21 40° NNE 23:11:51 10° NNE
BREEZE-M DEB (TANK) 4.4 23:08:48 10° NW 23:14:08 13° E 23:14:56 10° E
Cosmos 2266 Rocket 4.0 23:12:28 53° SE 23:13:33 62° E 23:19:42 10° NNE
Spot 4 3.6 23:13:59 85° SSE 23:14:07 90° ENE 23:18:54 10° NNW
Cosmos 1842 4.0 23:15:46 49° N 23:15:46 49° N 23:18:35 10° N
Cosmos 1655 Rocket 4.5 23:15:56 42° ESE 23:17:04 46° E 23:23:07 10° NNE
Cosmos 1833 Rocket 2.8 23:17:04 50° SW 23:18:27 71° WNW 23:24:05 10° NNE
Cosmos 2082 Rocket 3.0 23:23:06 37° ESE 23:23:06 37° ESE 23:28:10 10° NE
Cosmos 2360 4.2 23:18:49 10° NNW 23:24:29 65° WSW 23:25:03 61° SW
ATLAS CENTAUR R/B 4.4 23:11:43 10° NW 23:25:59 90° WSW 23:31:47 32° SE
Cosmos 1515 Rocket 4.2 23:28:43 45° WNW 23:28:44 45° WNW 23:32:54 10° N
CZ-2C R/B 4.5 23:27:24 28° ESE 23:29:12 36° ENE 23:42:30 10° N
Cosmos 2228 Rocket 4.3 23:31:44 32° ENE 23:31:44 32° ENE 23:35:16 10° NNE
Meteor 1-22 Rocket 4.3 23:27:58 10° N 23:33:14 57° ENE 23:33:54 53° ESE
SL-08 ROCKET BODY 4.4 23:33:08 62° SSE 23:34:15 80° E 23:40:27 10° N
Meteor 1-15 Rocket 4.3 23:31:54 10° N 23:37:30 64° ENE 23:38:16 57° ESE
H-2A R/B 3.7 23:38:15 33° W 23:38:15 33° W 23:41:36 10° NNW
H-2A R/B 2.8 23:34:43 10° NNE 23:38:23 45° ENE 23:38:23 45° ENE
Lacrosse 4 Rocket 3.5 23:36:32 10° WNW 23:38:21 18° W 23:38:21 18° W
Cosmos 1733 Rocket 4.4 23:36:08 10° NNE 23:39:58 30° ENE 23:39:58 30° ENE
Cosmos 1869 Rocket 3.7 23:38:34 10° N 23:42:30 71° N 23:42:30 71° N
Cosmos 1470 4.1 23:41:33 10° NNW 23:43:59 32° NW 23:43:59 32° NW
Cosmos 1400 Rocket 3.7 23:54:09 45° NE 23:54:09 45° NE 23:57:09 10° NNE
